Brookings, OR

6:19 AM PDT on March 28, 2017 (GMT -0700)
Brookings State

Weather History for KBOK - March, 2014

Change the Weather History Date:

Saturday, March 8, 2014

  Actual Average Record
Temperature  
Mean Temperature 52 °F -  
Max Temperature 59 °F 58 °F 77 °F (1934)
Min Temperature 45 °F 41 °F 30 °F (1974)
Degree Days  
Heating Degree Days 13    
Growing Degree Days 2 (Base 50)    
Moisture  
Dew Point 49 °F    
Average Humidity 90    
Maximum Humidity 100    
Minimum Humidity 62    
Precipitation  
Precipitation 0.91 in - - ()
Sea Level Pressure  
Sea Level Pressure 30.12 in    
Wind  
Wind Speed 6 mph (SE)    
Max Wind Speed 12 mph    
Max Gust Speed 18 mph    
Visibility 5 miles    
Events Rain    
Averages and records for this station are not official NWS values.
T = Trace of Precipitation, MM = Missing Value Source: NWS Daily Summary

Daily Weather History Graph

Daily Weather History Graph

Search for Another Location

Airport or City:

Trip Planner

Search our weather history database for the weather conditions in past years. The results will help you decide how hot, cold, wet, or windy it might be!

Date:

Astronomy

Mar. 08, 2014 Rise Set
Actual Time 6:40 AM PST 6:15 PM PST
Civil Twilight 6:12 AM PST 6:43 PM PST
Nautical Twilight 5:40 AM PST 7:15 PM PST
Astronomical Twilight 5:07 AM PST 7:48 PM PST
Moon 11:20 AM PST (3/8) 1:24 AM PST (3/8)
Length of Visible Light 12h 30m
Length of Day
11h 35m
First Quarter, 53% of the Moon is Illuminated
Mar 8
First Quarter
Mar 16
Full
Mar 23
Last Quarter
Mar 30
New
Apr 7
First Quarter

Hourly Weather History & Observations

Time (PST) Temp. Windchill Dew Point Humidity Pressure Visibility Wind Dir Wind Speed Gust Speed Precip Events Conditions
12:56 AM 47.8 °F - 46.9 °F 97% 30.16 in 10.0 mi ESE 3.5 mph - N/A   Clear
1:56 AM 46.9 °F - 46.9 °F 100% 30.15 in 10.0 mi Variable 4.6 mph - N/A   Clear
2:56 AM 46.9 °F - 45.9 °F 96% 30.12 in 10.0 mi Variable 6.9 mph - N/A   Clear
3:56 AM 45.9 °F 42.3 °F 45.9 °F 100% 30.12 in 8.0 mi SSE 6.9 mph - N/A   Partly Cloudy
4:05 AM 46.4 °F 44.3 °F 46.4 °F 100% 30.12 in 2.0 mi Variable 4.6 mph - N/A   Mostly Cloudy
4:18 AM 46.4 °F 43.5 °F 46.4 °F 100% 30.12 in 1.2 mi Variable 5.8 mph - N/A   Mostly Cloudy
4:26 AM 46.4 °F 42.9 °F 46.4 °F 100% 30.12 in 1.8 mi Variable 6.9 mph - N/A   Overcast
4:35 AM 46.4 °F 45.2 °F 46.4 °F 100% 30.13 in 3.0 mi Variable 3.5 mph - N/A   Overcast
4:56 AM 46.9 °F - 46.9 °F 100% 30.14 in 10.0 mi East 4.6 mph - N/A   Partly Cloudy
5:56 AM 48.9 °F - 46.9 °F 93% 30.14 in 9.0 mi Variable 5.8 mph - N/A   Mostly Cloudy
6:56 AM 48.9 °F - 46.9 °F 93% 30.15 in 10.0 mi Variable 5.8 mph - N/A   Overcast
7:56 AM 50.0 °F - 46.9 °F 89% 30.15 in 10.0 mi Variable 6.9 mph - N/A   Overcast
8:56 AM 52.9 °F - 46.9 °F 80% 30.14 in 9.0 mi ESE 5.8 mph - N/A   Overcast
9:56 AM 56.8 °F - 46.9 °F 69% 30.12 in 10.0 mi Variable 5.8 mph - N/A   Mostly Cloudy
10:56 AM 59.0 °F - 45.9 °F 62% 30.13 in 10.0 mi ESE 8.1 mph - N/A   Overcast
11:56 AM 59.0 °F - 45.9 °F 62% 30.14 in 9.0 mi SSE 8.1 mph - N/A   Overcast
12:56 PM 56.8 °F - 43.9 °F 62% 30.15 in 9.0 mi SSE 5.8 mph - 0.00 in   Overcast
1:56 PM 54.9 °F - 45.9 °F 72% 30.14 in 6.0 mi Variable 6.9 mph - 0.00 in Rain Light Rain
2:38 PM 53.6 °F - 50.0 °F 88% 30.13 in 4.0 mi East 4.6 mph - 0.01 in Rain Light Rain
2:56 PM 52.0 °F - 48.9 °F 89% 30.13 in 2.5 mi ESE 3.5 mph - 0.03 in Rain Rain
3:04 PM 51.8 °F - 48.2 °F 88% 30.13 in 3.0 mi Calm Calm - 0.01 in Rain Light Rain
3:21 PM 51.8 °F - 48.2 °F 88% 30.12 in 1.8 mi ESE 8.1 mph - 0.05 in Rain Rain
3:31 PM 51.8 °F - 48.2 °F 88% 30.12 in 2.5 mi ESE 8.1 mph - 0.06 in Rain Light Rain
3:56 PM 50.9 °F - 46.9 °F 86% 30.13 in 2.0 mi Variable 6.9 mph - 0.10 in Rain Rain
4:56 PM 50.9 °F - 47.8 °F 89% 30.11 in 2.5 mi SE 8.1 mph 18.4 mph 0.08 in Rain Light Rain
5:13 PM 51.8 °F - 48.2 °F 88% 30.10 in 3.0 mi ESE 6.9 mph 17.3 mph 0.01 in Rain Light Rain
5:42 PM 51.8 °F - 48.2 °F 88% 30.10 in 2.0 mi ESE 8.1 mph - 0.05 in Rain Rain
5:56 PM 52.0 °F - 48.9 °F 89% 30.11 in 3.0 mi ESE 9.2 mph - 0.06 in Rain Light Rain
6:44 PM 51.8 °F - 48.2 °F 88% 30.10 in 2.5 mi SE 8.1 mph - 0.08 in Rain Rain
6:48 PM 51.8 °F - 48.2 °F 88% 30.10 in 3.0 mi ESE 8.1 mph - 0.09 in Rain Light Rain
6:56 PM 52.0 °F - 48.9 °F 89% 30.11 in 5.0 mi ESE 9.2 mph - 0.09 in Rain Light Rain
7:30 PM 51.8 °F - 50.0 °F 94% 30.10 in 2.5 mi ESE 8.1 mph - 0.03 in Rain Rain
7:44 PM 53.6 °F - 50.0 °F 88% 30.11 in 3.0 mi SE 9.2 mph - 0.06 in Rain Rain
7:56 PM 52.9 °F - 50.0 °F 90% 30.11 in 5.0 mi ESE 10.4 mph 17.3 mph 0.06 in Rain Light Rain
8:56 PM 52.0 °F - 50.9 °F 96% 30.10 in 6.0 mi ESE 4.6 mph - 0.01 in Rain Light Rain
9:36 PM 55.4 °F - 53.6 °F 94% 30.10 in 4.0 mi SE 8.1 mph - 0.03 in Rain Light Rain
9:56 PM 54.9 °F - 52.9 °F 93% 30.10 in 3.0 mi SE 9.2 mph - 0.06 in Rain Light Rain
10:25 PM 55.4 °F - 53.6 °F 94% 30.09 in 2.5 mi SE 10.4 mph 16.1 mph 0.06 in Rain Rain
10:44 PM 55.4 °F - 55.4 °F 100% 30.09 in 1.8 mi SSE 11.5 mph - 0.14 in Rain Heavy Rain
10:56 PM 55.9 °F - 54.9 °F 96% 30.09 in 2.5 mi SSE 10.4 mph 17.3 mph 0.17 in Rain Light Rain
11:11 PM 55.4 °F - 55.4 °F 100% 30.08 in 2.0 mi SSE 10.4 mph - 0.04 in Rain Light Rain
11:21 PM 55.4 °F - 55.4 °F 100% 30.09 in 1.2 mi South 8.1 mph - 0.10 in Rain Heavy Rain
11:35 PM 55.4 °F - 55.4 °F 100% 30.09 in 1.2 mi South 9.2 mph - 0.17 in Rain Heavy Rain
11:43 PM 55.4 °F - 55.4 °F 100% 30.09 in 1.8 mi Variable 6.9 mph - 0.20 in Rain Rain
11:56 PM 55.9 °F - 55.9 °F 100% 30.09 in 1.5 mi Variable 6.9 mph - 0.25 in Rain Rain